Flag for Canada Weather past 2 weeks in Resolute Bay, Nunavut Territory, Canada

Now
-27 °F

Snow flurries. Passing clouds.


Feels Like: -44 °F
Forecast: -24 / -20 °F
Wind: 6 mph from Northwest

Location: Resolute

Current Time: Dec 21, 2014 at 8:54:12 PM

Latest Report: Dec 21, 2014 at 8:00 PM


Visibility: 15 mi

Pressure: 30.11 "Hg

Humidity: 67%

Dew point: -35 °F

Location of Resolute BayLocation

Historic Weather in Resolute Bay — Graph

°F

Resolute Bay temperature yesterday

Maximum temperature yesterday: -17 °F (at 12:00 AM)
Minimum temperature yesterday: -27 °F (at 9:00 PM)
Average temperature yesterday: -20 °F

Past Weeks' High & Low Weather Summary

 TemperatureHumidityPressure
High97 °F (Dec 14, 7:00 PM)84% (Dec 16, 10:00 AM)30.34 "Hg (Dec 16, 10:00 AM)
Low-33 °F (Dec 14, 8:00 PM)44% (Dec 12, 9:00 AM)29.55 "Hg (Dec 16, 12:00 PM)
Average-22 °F72%30.00 "Hg
* Reported Dec 6 7:00 PM — Dec 21 7:00 PM, Resolute Bay, Weather by CustomWeather, © 2014

Note: Actual official high and low records may vary slightly from our data, if they occured in-between our weather recording intervals... More about our weather records

Advertising

Resolute Bay weather history for previous 24 hours

 ConditionsComfort  
Time TempWeatherWind HumidityBarometerVisibility
7:00 PM
Dec 21
-29 °FSnow flurries. Clear.6 mph74%30.10 "Hg15 mi
6:00 PM-27 °FSnow flurries. Sunny.2 mph67%30.09 "Hg15 mi
5:00 PM-27 °FSnow flurries. Sunny.6 mph67%30.09 "Hg15 mi
4:00 PM-29 °FSnow flurries. Passing clouds.2 mph67%30.08 "Hg15 mi
3:00 PM-33 °FSnow flurries. Passing clouds.6 mph66%30.07 "Hg15 mi
2:00 PM-29 °FSnow flurries. Scattered clouds.6 mph67%30.06 "Hg15 mi
1:00 PM-27 °FSnow flurries. Passing clouds.6 mph67%30.05 "Hg15 mi
12:00 PM-29 °FSnow flurries. Sunny.9 mph67%30.03 "Hg15 mi
11:00 AM-27 °FSnow flurries. Sunny.6 mph67%30.03 "Hg15 mi
10:00 AM-29 °FSnow flurries. Sunny.5 mph67%30.01 "Hg15 mi
9:00 AM-29 °FSnow flurries. Sunny.5 mph67%30.01 "Hg15 mi
8:00 AM-29 °FSnow flurries. Sunny.6 mph67%30.00 "Hg15 mi
7:00 AM-29 °FSnow flurries. Sunny.5 mph74%29.99 "Hg15 mi
6:00 AM-29 °FSunny.8 mph67%29.99 "Hg15 mi
5:00 AM-24 °FSnow flurries. Clear.6 mph68%29.98 "Hg15 mi
4:00 AM-26 °FSnow flurries. Clear.No wind75%29.98 "Hg15 mi
3:00 AM-29 °FClear.6 mph74%29.98 "Hg15 mi
2:00 AM-27 °FSnow flurries. Clear.3 mph74%29.96 "Hg15 mi
1:00 AM-24 °FSnow flurries. Clear.5 mph75%29.94 "Hg15 mi
12:00 AM-27 °FSnow flurries. Sunny.8 mph74%29.93 "Hg15 mi
11:00 PM
Dec 20
-26 °FSnow flurries. Clear.13 mph75%29.93 "Hg15 mi
10:00 PM-27 °FSnow flurries. Clear.5 mph74%29.93 "Hg15 mi
9:00 PM-27 °FSnow flurries. Clear.10 mph74%29.93 "Hg15 mi
8:00 PM-22 °FSnow flurries. Passing clouds.5 mph75%29.93 "Hg15 mi
Weather by CustomWeather, © 2014

See weather overviewHow to use our weather pages